This demonstration page uses our WeatherBlox Daily Observations layout. Learn more.

Left ArrowRight Arrow

39.12711, -84.51439

Hourly Observations for September 7, 2022

Temp ( °F °C ) Dew Point ( °F °C ) Humidity (%) Winds ( mph kmh ) Pressure ( in mb ) Visibility ( mi km ) Precip ( " mm )
12:53 am 00:53 Clear with Mist and Fog 65 18.3 65 18.3 100 100 Calm 30.08 1019 5 8 0.00 0.00
1:30 am 01:30 Clear with Mist and Fog 64 17.8 64 17.8 100 100 Calm 30.07 1018 2 3 0.00 0.00
1:38 am 01:38 Clear with Mist and Fog 64 17.8 64 17.8 100 100 Calm 30.07 1018 2 3 0.00 0.00
1:48 am 01:48 Clear with Mist and Fog 64 18 63 17 94 94 Calm 30.07 1018 1 2 0.00 0.00
1:53 am 01:53 Clear with Fog 63 17.2 63 17.2 100 100 Calm 30.07 1018 1 1 0.00 0.00
2:13 am 02:13 Clear with Mist and Fog 64 17.8 64 17.8 100 100 Calm 30.07 1018 2 3 0.00 0.00
2:28 am 02:28 Clear with Mist and Fog 63 17.2 63 17.2 100 100 Calm 30.07 1018 1 1 0.00 0.00
2:40 am 02:40 Clear with Mist and Fog 63 17.2 63 17.2 100 100 Calm 30.07 1018 3 4 0.00 0.00
2:56 am 02:56 Clear with Mist and Fog 62 16.7 62 16.7 100 100 Calm 30.07 1018 1 1 0.00 0.00
3:11 am 03:11 Clear with Mist and Fog 63 17.2 63 17.2 100 100 Calm 30.07 1018 1 2 0.00 0.00
3:18 am 03:18 Clear with Mist and Fog 63 17.2 63 17.2 100 100 Calm 30.07 1018 3 5 0.00 0.00
3:40 am 03:40 Clear with Mist and Fog 63 17.2 63 17.2 100 100 Calm 30.06 1018 2 3 0.00 0.00
3:49 am 03:49 Clear with Mist and Fog 63 17 63 17 100 100 Calm 30.07 1018 1 1 0.00 0.00
3:53 am 03:53 Mostly Clear with Fog 62 16.7 62 16.7 100 100 Calm 30.06 1018 0 0 0.00 0.00
4:22 am 04:22 Clear with Fog 63 17.2 63 17.2 100 100 Calm 30.07 1018 1 1 0.00 0.00
4:31 am 04:31 Clear with Mist and Fog 62 16.7 62 16.7 100 100 Calm 30.07 1018 2 3 0.00 0.00
4:43 am 04:43 Clear with Mist and Fog 62 16.7 62 16.7 100 100 Calm 30.07 1018 3 4 0.00 0.00
4:53 am 04:53 Clear with Mist and Fog 62 16.7 61 16.1 96 96 Calm 30.07 1018 5 8 0.00 0.00
5:53 am 05:53 Clear with Mist and Fog 62 16.7 62 16.7 100 100 Calm 30.08 1019 4 6 0.00 0.00
6:12 am 06:12 Clear with Mist and Fog 62 16.7 62 16.7 100 100 Calm 30.08 1019 2 3 0.00 0.00
6:23 am 06:23 Clear with Fog 62 16.7 62 16.7 100 100 Calm 30.08 1019 1 1 0.00 0.00
6:37 am 06:37 Clear with Fog 61 16.1 61 16.1 100 100 Calm 30.08 1019 0 0 0.00 0.00
6:53 am 06:53 Clear with Fog 61 16.1 61 16.1 100 100 Calm 30.09 1019 0 0 0.00 0.00
7:07 am 07:07 Clear with Mist and Fog 60 15.6 60 15.6 100 100 Calm 30.10 1019 1 2 0.00 0.00
7:10 am 07:10 Clear with Mist and Fog 60 15.6 60 15.6 100 100 Calm 30.10 1019 3 5 0.00 0.00
7:17 am 07:17 Sunny with Mist and Fog 60 15.6 60 15.6 100 100 Calm 30.10 1019 1 2 0.00 0.00
7:53 am 07:53 Partly Cloudy with Mist and Fog 61 16.1 61 16.1 100 100 Calm 30.11 1020 6 10 0.00 0.00
8:53 am 08:53 Sunny 67 19.4 64 17.8 90 90 Calm 30.11 1020 8 13 0.00 0.00
9:53 am 09:53 Cloudy 69 20.6 63 17.2 81 81 Calm 30.11 1020 8 13 0.00 0.00
10:53 am 10:53 Mostly Cloudy 71 21.7 62 16.7 73 73 Calm 30.11 1020 9 14 0.00 0.00
11:53 am 11:53 Mostly Cloudy 75 23.9 64 17.8 69 69 Calm 30.10 1019 10 16 0.00 0.00
12:53 pm 12:53 Mostly Cloudy 75 23.9 62 16.7 64 64 VRB 7 11 30.08 1019 10 16 0.00 0.00
1:53 pm 13:53 Mostly Cloudy 76 24.4 59 15 56 56 N 10 17 30.06 1018 10 16 0.00 0.00
2:53 pm 14:53 Mostly Cloudy 78 25.6 59 15 52 52 N 12 19 30.04 1017 10 16 0.00 0.00
3:53 pm 15:53 Partly Cloudy 78 25.6 57 13.9 48 48 N 9 15 30.02 1017 10 16 0.00 0.00
4:53 pm 16:53 Partly Cloudy 81 27.2 57 13.9 44 44 NNE 8 13 30.01 1016 10 16 0.00 0.00
5:53 pm 17:53 Partly Cloudy 80 26.7 56 13.3 44 44 N 12 19 30.01 1016 10 16 0.00 0.00
6:53 pm 18:53 Partly Cloudy 78 25.6 55 12.8 45 45 N 10 17 30.01 1016 10 16 0.00 0.00
7:53 pm 19:53 Partly Cloudy 72 22.2 60 15.6 66 66 NE 3 6 30.01 1016 10 16 0.00 0.00
8:53 pm 20:53 Clear 64 17.8 62 16.7 93 93 Calm 30.02 1017 10 16 0.00 0.00
9:53 pm 21:53 Clear 63 17.2 62 16.7 97 97 Calm 30.03 1017 9 14 0.00 0.00
10:53 pm 22:53 Mostly Clear 63 17.2 62 16.7 97 97 NE 3 6 30.03 1017 7 11 0.00 0.00
11:53 pm 23:53 Clear with Mist and Fog 61 16.1 61 16.1 100 100 Calm 30.03 1017 6 10 0.00 0.00

Powered by AerisWeather